QPF
0.04 0.06 0.07 0.06 0.05 0.05 0.04 0.05 0.05 0.05 0.05 0.04 0.03 0.03 0.04 0.05 0.04 0.04 0.02 0.05 0.04 0.04 0.04 0.06 0.07 0.05 0.04 0.02 0.02 0.02 0.02 0.02 0.03 0.02 0.02 0.02 0.02 0.03 0.03 0.02 0.02 0.03 0.03
0.03 0.05 0.06 0.06 0.05 0.04 0.03 0.05 0.04 0.04 0.04 0.03 0.03 0.03 0.04 0.04 0.04 0.04 0.02 0.03 0.04 0.05 0.06 0.09 0.10 0.07 0.05 0.02 0.02 0.02 0.02 0.03 0.04 0.03 0.02 0.01 0.01 0.02 0.01 0.01 0.01 0.02 0.02
0.04 0.04 0.06 0.05 0.04 0.03 0.02 0.02 0.03 0.03 0.03 0.02 0.02 0.03 0.04 0.03 0.04 0.05 0.05 0.04 0.05 0.05 0.04 0.06 0.08 0.06 0.06 0.03 0.02 0.03 0.03 0.03 0.05 0.04 0.02 0.01 0.01 0.01 0.01 0.01 0.01 0.01 0.01
0.07 0.09 0.08 0.07 0.04 0.03 0.02 0.02 0.03 0.03 0.03 0.02 0.02 0.03 0.04 0.04 0.04 0.05 0.05 0.04 0.05 0.03 0.02 0.03 0.06 0.06 0.06 0.03 0.03 0.04 0.04 0.03 0.05 0.05 0.02 0.01 0.01 0.01 0.01 0.01 0.01 0.01 0.01
0.16 0.15 0.12 0.06 0.04 0.03 0.04 0.05 0.05 0.05 0.05 0.04 0.02 0.02 0.04 0.04 0.03 0.03 0.04 0.04 0.04 0.03 0.02 0.02 0.03 0.05 0.06 0.04 0.03 0.04 0.04 0.04 0.04 0.04 0.02 0.01 0.01 0.01 0.01 0.01 0.01 0.01 0.02
0.08 0.06 0.06 0.05 0.06 0.04 0.04 0.06 0.07 0.07 0.06 0.05 0.06 0.04 0.04 0.04 0.04 0.04 0.04 0.04 0.04 0.03 0.02 0.02 0.02 0.03 0.04 0.03 0.03 0.03 0.03 0.03 0.03 0.03 0.02 0.01 0.01 0.01 0.01 0.01 0.01 0.02 0.02
0.05 0.05 0.06 0.06 0.06 0.05 0.04 0.06 0.09 0.08 0.07 0.07 0.06 0.07 0.06 0.06 0.06 0.05 0.06 0.04 0.04 0.03 0.02 0.02 0.02 0.01 0.01 0.01 0.01 0.02 0.02 0.04 0.04 0.03 0.03 0.02 0.01 0.01 0.01 0.01 0.01 0.02 0.02
0.06 0.06 0.07 0.08 0.09 0.09 0.09 0.08 0.08 0.08 0.08 0.10 0.10 0.07 0.07 0.06 0.06 0.05 0.07 0.07 0.07 0.05 0.03 0.04 0.03 0.01 0.01 0.01 0.01 0.01 0.01 0.02 0.02 0.02 0.03 0.02 0.02 0.02 0.02 0.02 0.03 0.03 0.03
0.05 0.05 0.05 0.06 0.08 0.10 0.10 0.10 0.10 0.09 0.09 0.10 0.13 0.10 0.08 0.08 0.08 0.07 0.07 0.08 0.08 0.07 0.06 0.06 0.06 0.05 0.03 0.02 0.01 0.01 0.02 0.02 0.02 0.02 0.02 0.03 0.03 0.03 0.03 0.04 0.05 0.05 0.05
0.03 0.04 0.04 0.05 0.06 0.06 0.05 0.05 0.05 0.06 0.07 0.08 0.10 0.10 0.08 0.09 0.10 0.09 0.07 0.06 0.06 0.06 0.06 0.05 0.04 0.06 0.06 0.03 0.02 0.02 0.02 0.02 0.02 0.02 0.02 0.02 0.03 0.03 0.03 0.04 0.05 0.05 0.06
0.03 0.03 0.03 0.04 0.04 0.04 0.03 0.03 0.03 0.03 0.04 0.05 0.07 0.08 0.07 0.07 0.09 0.08 0.06 0.04 0.04 0.04 0.04 0.03 0.02 0.03 0.06 0.04 0.03 0.02 0.02 0.02 0.02 0.02 0.02 0.02 0.02 0.03 0.03 0.04 0.05 0.04 0.04
0.03 0.03 0.03 0.03 0.03 0.03 0.03 0.02 0.03 0.03 0.03 0.04 0.05 0.06 0.07 0.08 0.10 0.08 0.06 0.05 0.04 0.02 0.02 0.02 0.02 0.03 0.05 0.04 0.02 0.02 0.02 0.02 0.02 0.02 0.02 0.02 0.02 0.02 0.03 0.03 0.04 0.04 0.04
0.04 0.04 0.04 0.04 0.04 0.05 0.04 0.03 0.02 0.03 0.03 0.05 0.05 0.04 0.04 0.05 0.06 0.09 0.08 0.06 0.04 0.03 0.03 0.04 0.04 0.04 0.04 0.03 0.02 0.02 0.02 0.01 0.01 0.01 0.01 0.01 0.02 0.03 0.04 0.03 0.03 0.04 0.05
0.04 0.03 0.04 0.04 0.05 0.06 0.06 0.05 0.03 0.02 0.02 0.03 0.05 0.05 0.05 0.04 0.04 0.05 0.06 0.06 0.04 0.04 0.05 0.05 0.04 0.03 0.03 0.03 0.03 0.03 0.02 0.01 0.01 0.01 0.02 0.02 0.04 0.05 0.06 0.05 0.05 0.05 0.05
0.03 0.03 0.04 0.03 0.03 0.05 0.07 0.06 0.04 0.02 0.02 0.02 0.03 0.03 0.04 0.04 0.05 0.05 0.05 0.06 0.05 0.05 0.06 0.05 0.04 0.03 0.03 0.03 0.03 0.03 0.03 0.02 0.02 0.02 0.02 0.04 0.08 0.08 0.08 0.06 0.05 0.05 0.04
0.03 0.03 0.03 0.03 0.03 0.04 0.05 0.06 0.05 0.04 0.04 0.03 0.03 0.03 0.03 0.03 0.04 0.04 0.05 0.06 0.06 0.06 0.05 0.03 0.04 0.04 0.04 0.04 0.03 0.03 0.03 0.03 0.02 0.02 0.03 0.05 0.07 0.09 0.10 0.08 0.05 0.05 0.04
0.03 0.03 0.03 0.03 0.04 0.04 0.05 0.05 0.05 0.06 0.06 0.05 0.05 0.03 0.03 0.03 0.03 0.04 0.05 0.06 0.06 0.05 0.05 0.03 0.03 0.04 0.04 0.04 0.05 0.05 0.05 0.04 0.04 0.03 0.03 0.04 0.06 0.06 0.06 0.06 0.05 0.04 0.04
0.03 0.03 0.04 0.04 0.04 0.04 0.04 0.05 0.05 0.05 0.05 0.05 0.06 0.05 0.05 0.03 0.03 0.04 0.04 0.04 0.04 0.04 0.04 0.03 0.03 0.04 0.04 0.04 0.06 0.06 0.05 0.05 0.04 0.03 0.03 0.03 0.04 0.05 0.05 0.04 0.03 0.03 0.04
0.03 0.03 0.03 0.04 0.04 0.04 0.04 0.03 0.02 0.03 0.02 0.03 0.04 0.05 0.06 0.05 0.04 0.04 0.04 0.03 0.03 0.02 0.02 0.02 0.02 0.03 0.03 0.05 0.06 0.06 0.05 0.05 0.05 0.04 0.04 0.04 0.04 0.04 0.04 0.04 0.04 0.04 0.04
0.03 0.03 0.03 0.03 0.02 0.03 0.03 0.03 0.03 0.02 0.03 0.02 0.02 0.03 0.03 0.03 0.03 0.04 0.04 0.05 0.04 0.03 0.03 0.03 0.03 0.03 0.03 0.04 0.05 0.05 0.05 0.06 0.06 0.05 0.05 0.05 0.05 0.05 0.05 0.05 0.05 0.05 0.05
0.03 0.03 0.04 0.04 0.03 0.03 0.03 0.03 0.02 0.03 0.03 0.03 0.03 0.02 0.02 0.02 0.02 0.02 0.03 0.03 0.04 0.04 0.04 0.04 0.03 0.03 0.03 0.04 0.04 0.05 0.05 0.06 0.06 0.05 0.05 0.06 0.06 0.06 0.06 0.06 0.06 0.05 0.05
0.05 0.04 0.06 0.06 0.04 0.03 0.02 0.02 0.03 0.03 0.03 0.03 0.03 0.01 0.01 0.01 0.01 0.01 0.01 0.02 0.02 0.03 0.03 0.03 0.04 0.04 0.04 0.04 0.05 0.06 0.07 0.08 0.07 0.06 0.06 0.05 0.05 0.05 0.05 0.05 0.05 0.05 0.05
0.06 0.05 0.05 0.06 0.05 0.05 0.04 0.03 0.03 0.03 0.03 0.02 0.01 0.01 0.01 0.00 0.00 0.01 0.01 0.01 0.01 0.02 0.02 0.03 0.03 0.04 0.05 0.06 0.06 0.07 0.06 0.07 0.06 0.05 0.04 0.03 0.03 0.03 0.03 0.03 0.03 0.04 0.04
0.10 0.07 0.05 0.06 0.05 0.05 0.04 0.03 0.03 0.02 0.02 0.02 0.02 0.02 0.01 0.01 0.01 0.01 0.01 0.01 0.01 0.01 0.01 0.02 0.03 0.03 0.04 0.05 0.05 0.05 0.04 0.04 0.04 0.03 0.02 0.02 0.02 0.02 0.02 0.03 0.03 0.03 0.04
0.08 0.07 0.05 0.05 0.05 0.04 0.04 0.04 0.03 0.03 0.03 0.02 0.02 0.02 0.02 0.02 0.01 0.01 0.01 0.01 0.01 0.01 0.01 0.01 0.01 0.02 0.03 0.03 0.03 0.03 0.03 0.03 0.02 0.02 0.02 0.02 0.02 0.02 0.03 0.03 0.03 0.04 0.04
0.03 0.03 0.03 0.03 0.04 0.05 0.05 0.05 0.05 0.04 0.04 0.04 0.04 0.04 0.04 0.03 0.03 0.02 0.02 0.02 0.02 0.02 0.02 0.02 0.02 0.02 0.02 0.02 0.03 0.03 0.02 0.02 0.03 0.03 0.03 0.03 0.02 0.02 0.02 0.02 0.03 0.04 0.04
MSLP
1008.22 1009.01 1009.78 1010.50 1011.13 1011.69 1012.16 1012.57 1012.93 1013.29 1013.65 1014.02 1014.41 1014.80 1015.17 1015.51 1015.80 1016.03 1016.21 1016.34 1016.45 1016.55 1016.66 1016.80 1016.96 1017.14 1017.33 1017.49 1017.61 1017.66 1017.63 1017.51 1017.29 1016.98 1016.62 1016.23 1015.84 1015.49 1015.21 1015.01 1014.89 1014.84 1014.84
1007.60 1008.40 1009.16 1009.85 1010.47 1010.99 1011.43 1011.82 1012.18 1012.55 1012.93 1013.33 1013.76 1014.19 1014.60 1014.98 1015.29 1015.54 1015.72 1015.84 1015.92 1015.99 1016.05 1016.14 1016.25 1016.39 1016.54 1016.69 1016.81 1016.89 1016.90 1016.84 1016.70 1016.48 1016.21 1015.89 1015.58 1015.28 1015.03 1014.84 1014.71 1014.65 1014.63
1007.07 1007.85 1008.58 1009.24 1009.81 1010.30 1010.72 1011.09 1011.45 1011.83 1012.23 1012.67 1013.14 1013.61 1014.06 1014.47 1014.81 1015.07 1015.26 1015.37 1015.43 1015.47 1015.50 1015.55 1015.62 1015.72 1015.84 1015.96 1016.08 1016.17 1016.21 1016.19 1016.11 1015.97 1015.77 1015.53 1015.28 1015.04 1014.83 1014.65 1014.53 1014.47 1014.44
1006.71 1007.43 1008.11 1008.72 1009.24 1009.69 1010.08 1010.44 1010.81 1011.20 1011.63 1012.11 1012.61 1013.12 1013.61 1014.04 1014.40 1014.67 1014.86 1014.98 1015.03 1015.06 1015.07 1015.09 1015.13 1015.20 1015.29 1015.39 1015.48 1015.56 1015.61 1015.61 1015.56 1015.47 1015.32 1015.15 1014.95 1014.76 1014.58 1014.43 1014.32 1014.25 1014.21
1006.58 1007.22 1007.82 1008.36 1008.83 1009.23 1009.60 1009.96 1010.33 1010.75 1011.21 1011.71 1012.25 1012.78 1013.28 1013.73 1014.10 1014.38 1014.58 1014.70 1014.76 1014.78 1014.79 1014.81 1014.83 1014.88 1014.94 1015.00 1015.06 1015.11 1015.13 1015.12 1015.07 1014.99 1014.87 1014.73 1014.57 1014.41 1014.26 1014.14 1014.04 1013.98 1013.94
1006.75 1007.28 1007.79 1008.25 1008.65 1009.01 1009.35 1009.71 1010.09 1010.52 1011.01 1011.53 1012.08 1012.62 1013.12 1013.57 1013.93 1014.21 1014.41 1014.54 1014.61 1014.65 1014.67 1014.69 1014.72 1014.75 1014.78 1014.80 1014.82 1014.81 1014.78 1014.72 1014.63 1014.52 1014.39 1014.25 1014.11 1013.98 1013.85 1013.75 1013.67 1013.61 1013.57
1007.22 1007.65 1008.05 1008.42 1008.75 1009.07 1009.39 1009.73 1010.12 1010.56 1011.05 1011.58 1012.12 1012.64 1013.13 1013.55 1013.89 1014.16 1014.35 1014.49 1014.58 1014.64 1014.68 1014.72 1014.75 1014.77 1014.77 1014.75 1014.70 1014.62 1014.51 1014.37 1014.21 1014.05 1013.88 1013.72 1013.57 1013.44 1013.34 1013.25 1013.19 1013.14 1013.12
1008.00 1008.31 1008.61 1008.90 1009.17 1009.44 1009.73 1010.06 1010.44 1010.87 1011.35 1011.85 1012.35 1012.83 1013.27 1013.65 1013.95 1014.19 1014.37 1014.51 1014.62 1014.70 1014.77 1014.83 1014.86 1014.87 1014.85 1014.77 1014.65 1014.49 1014.28 1014.05 1013.81 1013.57 1013.34 1013.14 1012.97 1012.83 1012.73 1012.65 1012.60 1012.58 1012.57
1009.00 1009.22 1009.44 1009.65 1009.86 1010.09 1010.35 1010.65 1011.00 1011.40 1011.83 1012.28 1012.72 1013.13 1013.50 1013.81 1014.06 1014.26 1014.42 1014.56 1014.67 1014.78 1014.87 1014.95 1014.99 1014.99 1014.93 1014.81 1014.62 1014.37 1014.07 1013.75 1013.41 1013.09 1012.79 1012.54 1012.34 1012.18 1012.07 1012.00 1011.96 1011.95 1011.95
1010.13 1010.28 1010.43 1010.59 1010.75 1010.94 1011.16 1011.42 1011.72 1012.06 1012.43 1012.80 1013.15 1013.47 1013.75 1013.98 1014.16 1014.32 1014.45 1014.57 1014.69 1014.81 1014.92 1015.01 1015.06 1015.05 1014.97 1014.80 1014.55 1014.23 1013.86 1013.45 1013.04 1012.64 1012.29 1011.99 1011.75 1011.57 1011.44 1011.37 1011.33 1011.31 1011.32
1011.28 1011.39 1011.50 1011.61 1011.73 1011.88 1012.05 1012.25 1012.49 1012.75 1013.03 1013.30 1013.54 1013.76 1013.94 1014.08 1014.20 1014.31 1014.41 1014.52 1014.64 1014.77 1014.89 1014.98 1015.03 1015.01 1014.91 1014.72 1014.43 1014.06 1013.64 1013.19 1012.72 1012.28 1011.89 1011.55 1011.28 1011.07 1010.93 1010.83 1010.77 1010.74 1010.74
1012.37 1012.46 1012.54 1012.62 1012.70 1012.79 1012.91 1013.05 1013.20 1013.37 1013.54 1013.70 1013.83 1013.94 1014.02 1014.09 1014.14 1014.20 1014.27 1014.37 1014.48 1014.61 1014.73 1014.83 1014.88 1014.86 1014.75 1014.55 1014.25 1013.88 1013.44 1012.98 1012.51 1012.06 1011.65 1011.30 1011.01 1010.78 1010.60 1010.47 1010.37 1010.30 1010.26
1013.35 1013.42 1013.47 1013.52 1013.56 1013.60 1013.65 1013.71 1013.77 1013.84 1013.89 1013.94 1013.97 1013.98 1013.97 1013.97 1013.97 1013.99 1014.04 1014.12 1014.23 1014.35 1014.47 1014.56 1014.61 1014.59 1014.49 1014.30 1014.03 1013.68 1013.28 1012.86 1012.42 1012.01 1011.62 1011.28 1010.98 1010.73 1010.52 1010.34 1010.18 1010.05 1009.95
1014.18 1014.23 1014.26 1014.27 1014.26 1014.24 1014.22 1014.19 1014.16 1014.12 1014.07 1014.01 1013.94 1013.87 1013.80 1013.74 1013.70 1013.69 1013.72 1013.79 1013.89 1014.00 1014.11 1014.20 1014.24 1014.23 1014.15 1013.99 1013.76 1013.48 1013.15 1012.81 1012.45 1012.10 1011.78 1011.47 1011.19 1010.93 1010.69 1010.46 1010.24 1010.03 1009.85
1014.90 1014.91 1014.90 1014.87 1014.81 1014.72 1014.63 1014.51 1014.39 1014.25 1014.10 1013.95 1013.80 1013.66 1013.54 1013.44 1013.38 1013.35 1013.37 1013.42 1013.50 1013.59 1013.69 1013.76 1013.79 1013.79 1013.73 1013.61 1013.45 1013.26 1013.03 1012.80 1012.55 1012.30 1012.06 1011.82 1011.58 1011.32 1011.06 1010.79 1010.51 1010.23 1009.96
1015.54 1015.50 1015.44 1015.35 1015.24 1015.09 1014.91 1014.72 1014.51 1014.28 1014.06 1013.83 1013.62 1013.43 1013.27 1013.15 1013.07 1013.03 1013.03 1013.06 1013.12 1013.18 1013.23 1013.28 1013.29 1013.28 1013.24 1013.18 1013.09 1012.98 1012.87 1012.75 1012.63 1012.51 1012.37 1012.21 1012.02 1011.80 1011.54 1011.24 1010.92 1010.59 1010.25
1016.13 1016.05 1015.93 1015.79 1015.62 1015.41 1015.17 1014.90 1014.61 1014.32 1014.03 1013.75 1013.49 1013.26 1013.08 1012.94 1012.84 1012.78 1012.75 1012.75 1012.77 1012.78 1012.79 1012.79 1012.77 1012.74 1012.70 1012.67 1012.63 1012.61 1012.60 1012.60 1012.60 1012.59 1012.56 1012.50 1012.38 1012.21 1011.98 1011.69 1011.36 1011.01 1010.64
1016.72 1016.58 1016.42 1016.23 1016.00 1015.74 1015.45 1015.13 1014.79 1014.44 1014.09 1013.77 1013.47 1013.22 1013.00 1012.84 1012.72 1012.63 1012.57 1012.52 1012.48 1012.43 1012.37 1012.30 1012.23 1012.17 1012.11 1012.08 1012.07 1012.11 1012.17 1012.26 1012.36 1012.46 1012.52 1012.55 1012.52 1012.41 1012.24 1012.00 1011.71 1011.38 1011.04
1017.28 1017.10 1016.91 1016.68 1016.43 1016.13 1015.80 1015.44 1015.06 1014.67 1014.29 1013.93 1013.60 1013.31 1013.07 1012.88 1012.72 1012.59 1012.48 1012.37 1012.26 1012.13 1011.99 1011.85 1011.70 1011.57 1011.47 1011.41 1011.40 1011.45 1011.55 1011.69 1011.85 1012.02 1012.17 1012.28 1012.33 1012.31 1012.22 1012.07 1011.86 1011.61 1011.34
1017.79 1017.60 1017.39 1017.15 1016.88 1016.58 1016.23 1015.85 1015.45 1015.03 1014.62 1014.22 1013.86 1013.54 1013.26 1013.02 1012.82 1012.64 1012.46 1012.28 1012.09 1011.88 1011.65 1011.41 1011.18 1010.97 1010.80 1010.68 1010.63 1010.65 1010.75 1010.89 1011.08 1011.29 1011.49 1011.67 1011.80 1011.87 1011.88 1011.84 1011.74 1011.61 1011.46
1018.21 1018.02 1017.82 1017.59 1017.33 1017.03 1016.69 1016.30 1015.89 1015.45 1015.02 1014.59 1014.20 1013.83 1013.51 1013.22 1012.96 1012.72 1012.47 1012.22 1011.95 1011.65 1011.34 1011.01 1010.69 1010.38 1010.13 1009.93 1009.81 1009.78 1009.82 1009.94 1010.11 1010.32 1010.54 1010.76 1010.95 1011.11 1011.23 1011.31 1011.35 1011.37 1011.37
1018.49 1018.33 1018.15 1017.96 1017.72 1017.44 1017.11 1016.73 1016.31 1015.87 1015.41 1014.95 1014.52 1014.11 1013.74 1013.39 1013.08 1012.77 1012.46 1012.14 1011.80 1011.43 1011.04 1010.63 1010.22 1009.84 1009.49 1009.21 1009.00 1008.89 1008.86 1008.91 1009.03 1009.21 1009.43 1009.67 1009.91 1010.15 1010.36 1010.57 1010.75 1010.91 1011.06
1018.62 1018.49 1018.35 1018.19 1017.99 1017.73 1017.42 1017.05 1016.63 1016.17 1015.70 1015.21 1014.74 1014.28 1013.86 1013.47 1013.09 1012.73 1012.37 1012.00 1011.60 1011.18 1010.74 1010.27 1009.80 1009.35 1008.93 1008.57 1008.27 1008.07 1007.95 1007.92 1007.98 1008.11 1008.31 1008.54 1008.81 1009.10 1009.40 1009.71 1010.01 1010.30 1010.59
1018.59 1018.50 1018.40 1018.27 1018.09 1017.86 1017.57 1017.20 1016.79 1016.32 1015.82 1015.31 1014.80 1014.30 1013.83 1013.39 1012.97 1012.57 1012.17 1011.77 1011.34 1010.89 1010.42 1009.92 1009.42 1008.92 1008.45 1008.02 1007.66 1007.38 1007.18 1007.08 1007.07 1007.15 1007.30 1007.52 1007.80 1008.12 1008.48 1008.86 1009.24 1009.64 1010.02
1018.43 1018.37 1018.30 1018.19 1018.04 1017.82 1017.54 1017.18 1016.76 1016.28 1015.76 1015.22 1014.68 1014.15 1013.64 1013.16 1012.71 1012.28 1011.85 1011.43 1010.99 1010.54 1010.06 1009.56 1009.05 1008.54 1008.04 1007.58 1007.17 1006.83 1006.58 1006.42 1006.35 1006.37 1006.49 1006.69 1006.97 1007.30 1007.68 1008.10 1008.54 1008.98 1009.42
1018.20 1018.16 1018.10 1018.00 1017.85 1017.64 1017.36 1017.00 1016.57 1016.08 1015.54 1014.98 1014.41 1013.85 1013.31 1012.80 1012.32 1011.87 1011.43 1011.00 1010.56 1010.12 1009.65 1009.16 1008.66 1008.16 1007.66 1007.19 1006.77 1006.40 1006.12 1005.91 1005.80 1005.80 1005.88 1006.06 1006.32 1006.66 1007.04 1007.47 1007.92 1008.38 1008.82
Thickness
5715 5713 5711 5710 5709 5708 5707 5706 5705 5703 5702 5701 5700 5698 5696 5695 5693 5691 5690 5688 5686 5685 5684 5683 5682 5682 5681 5680 5678 5677 5676 5675 5674 5675 5674 5675 5675 5675 5675 5675 5674 5673 5672
5711 5709 5707 5705 5704 5703 5702 5701 5700 5699 5698 5696 5695 5694 5692 5691 5689 5687 5686 5684 5682 5680 5680 5679 5678 5678 5677 5675 5674 5673 5672 5672 5670 5669 5669 5669 5670 5670 5670 5669 5669 5669 5668
5706 5703 5701 5699 5699 5698 5697 5696 5695 5694 5693 5692 5690 5689 5688 5687 5685 5684 5682 5681 5679 5677 5676 5675 5675 5674 5672 5671 5670 5669 5668 5668 5666 5665 5664 5664 5664 5664 5663 5663 5663 5662 5663
5700 5698 5695 5693 5693 5693 5692 5691 5689 5688 5687 5686 5685 5685 5684 5683 5681 5680 5678 5677 5675 5674 5673 5672 5671 5671 5669 5668 5667 5666 5664 5663 5661 5660 5659 5659 5658 5657 5656 5656 5656 5656 5656
5694 5692 5690 5688 5687 5686 5685 5685 5683 5682 5682 5681 5680 5680 5679 5678 5677 5675 5674 5672 5671 5669 5668 5668 5668 5668 5667 5665 5664 5662 5660 5658 5656 5655 5654 5653 5653 5651 5651 5651 5650 5650 5650
5687 5686 5684 5683 5681 5680 5679 5678 5677 5676 5675 5675 5674 5674 5674 5674 5673 5671 5670 5668 5666 5665 5664 5663 5663 5663 5662 5661 5660 5659 5657 5654 5652 5650 5650 5649 5648 5648 5646 5646 5644 5644 5644
5680 5679 5678 5677 5676 5675 5674 5672 5671 5670 5670 5669 5668 5667 5667 5667 5666 5665 5664 5662 5661 5660 5659 5657 5658 5658 5657 5656 5655 5653 5652 5651 5650 5648 5647 5646 5645 5645 5643 5641 5639 5639 5638
5674 5673 5672 5671 5670 5669 5668 5666 5665 5664 5664 5663 5662 5661 5661 5661 5660 5659 5658 5657 5655 5654 5653 5653 5652 5651 5651 5650 5649 5648 5647 5646 5645 5644 5644 5644 5643 5642 5640 5639 5636 5634 5633
5666 5666 5665 5664 5663 5662 5660 5658 5658 5657 5657 5656 5655 5655 5654 5654 5653 5652 5651 5650 5649 5648 5648 5648 5647 5646 5646 5644 5643 5642 5642 5641 5641 5640 5640 5639 5638 5637 5635 5633 5631 5630 5630
5660 5659 5658 5657 5656 5654 5653 5651 5651 5651 5650 5649 5649 5648 5647 5646 5646 5645 5644 5644 5643 5643 5642 5641 5641 5641 5640 5639 5638 5637 5636 5636 5635 5635 5633 5633 5632 5632 5630 5629 5629 5627 5626
5653 5652 5650 5649 5649 5648 5645 5644 5643 5643 5642 5641 5641 5641 5640 5640 5639 5638 5637 5636 5637 5637 5637 5636 5636 5635 5634 5633 5633 5632 5632 5631 5629 5628 5627 5627 5627 5627 5626 5626 5625 5624 5624
5645 5644 5643 5642 5641 5640 5637 5635 5635 5635 5634 5633 5633 5633 5633 5633 5632 5632 5631 5631 5632 5631 5631 5631 5631 5629 5628 5627 5626 5626 5626 5624 5624 5623 5622 5622 5622 5623 5622 5622 5621 5621 5621
5637 5636 5634 5634 5632 5630 5628 5627 5627 5627 5626 5625 5626 5626 5625 5626 5626 5627 5626 5626 5626 5626 5626 5625 5624 5623 5622 5621 5620 5620 5619 5619 5619 5618 5618 5618 5617 5617 5617 5616 5616 5616 5616
5629 5628 5626 5625 5623 5622 5621 5621 5620 5620 5619 5619 5619 5620 5619 5619 5621 5621 5620 5620 5620 5619 5618 5617 5617 5616 5616 5615 5614 5614 5613 5613 5613 5614 5614 5613 5612 5611 5611 5611 5611 5612 5611
5621 5620 5619 5618 5616 5615 5615 5614 5614 5614 5614 5614 5614 5614 5614 5615 5616 5615 5615 5615 5615 5613 5611 5611 5611 5610 5610 5609 5609 5609 5609 5609 5608 5608 5608 5607 5606 5606 5606 5606 5606 5606 5605
5613 5612 5611 5610 5609 5609 5608 5608 5608 5608 5608 5608 5609 5609 5610 5610 5609 5609 5609 5609 5608 5608 5607 5606 5605 5604 5604 5604 5603 5604 5604 5604 5604 5603 5602 5601 5601 5601 5601 5600 5600 5600 5599
5607 5606 5605 5604 5603 5602 5602 5602 5602 5602 5602 5602 5602 5602 5603 5603 5602 5602 5602 5602 5601 5601 5601 5600 5599 5598 5598 5597 5597 5597 5598 5598 5597 5597 5597 5597 5596 5596 5595 5594 5594 5594 5594
5601 5601 5599 5598 5597 5597 5596 5597 5597 5597 5596 5596 5596 5595 5595 5595 5595 5595 5594 5594 5593 5593 5594 5593 5592 5592 5591 5591 5591 5591 5591 5591 5591 5591 5591 5591 5590 5590 5589 5588 5588 5587 5587
5595 5595 5594 5593 5593 5592 5591 5591 5591 5591 5590 5590 5590 5589 5588 5588 5588 5587 5587 5587 5587 5587 5586 5586 5585 5585 5585 5584 5584 5584 5584 5585 5585 5585 5584 5584 5583 5583 5583 5582 5582 5580 5579
5590 5590 5589 5588 5587 5586 5585 5585 5585 5584 5584 5584 5584 5583 5582 5581 5581 5580 5579 5579 5579 5580 5580 5579 5579 5578 5578 5577 5577 5577 5578 5578 5578 5578 5578 5577 5576 5576 5576 5575 5574 5574 5573
5585 5584 5584 5583 5581 5580 5579 5578 5578 5578 5578 5578 5577 5577 5576 5576 5575 5574 5573 5573 5573 5573 5573 5573 5572 5571 5571 5571 5571 5571 5572 5572 5572 5571 5571 5571 5570 5569 5569 5568 5568 5567 5566
5579 5579 5577 5576 5575 5574 5573 5573 5572 5572 5572 5572 5571 5571 5569 5569 5569 5568 5567 5567 5567 5566 5567 5567 5567 5566 5566 5565 5565 5565 5565 5565 5565 5565 5565 5564 5563 5562 5562 5561 5561 5560 5559
5573 5573 5571 5570 5569 5567 5566 5566 5566 5566 5566 5565 5565 5564 5563 5562 5562 5562 5561 5561 5560 5560 5560 5560 5560 5560 5560 5559 5558 5558 5559 5559 5559 5558 5558 5558 5557 5556 5555 5554 5553 5553 5552
5566 5566 5565 5564 5562 5561 5561 5560 5560 5560 5559 5559 5558 5557 5556 5555 5555 5555 5555 5554 5554 5554 5553 5553 5553 5553 5553 5552 5552 5552 5552 5552 5552 5552 5551 5550 5550 5549 5548 5547 5546 5545 5544
5559 5559 5558 5557 5556 5555 5554 5554 5553 5553 5553 5552 5552 5551 5550 5549 5549 5548 5547 5547 5547 5546 5546 5546 5545 5545 5545 5545 5545 5545 5545 5544 5544 5543 5543 5543 5542 5541 5540 5539 5538 5537 5535
5551 5551 5551 5550 5549 5548 5548 5547 5546 5545 5545 5545 5544 5544 5542 5541 5541 5540 5540 5539 5538 5538 5538 5538 5538 5537 5536 5536 5536 5536 5536 5536 5535 5535 5534 5534 5534 5533 5533 5532 5531 5529 5528